Date String (YYYY-MM-DD hh:mm:ss) UTC,Instrument flags,Ambient pressure (hPa),Sample flow (lpm),Bypass flow (lpm),Sample temperature (°C),Ambient temperature (°C),ASC tube jacket temperature (°C),LED temperature (°C),Box temperature (°C),Sample RH (%),Span deviation,Mass concentration (μg/m³),Mass concentration (μg/m³),Mass concentration (μg/m³)
DateTimeUTC,F1_M11,P_M11,Q1_M11,Q2_M11,T1_M11,T2_M11,T3_M11,T4_M11,T5_M11,U1_M11,ZSPAN_M11,X0_M11,X2_M11,X1_M11
2023-01-09 23:00:00,,0821.8,4.99,0.00,23.9,22.5,00.0,32.7,25.6,12.5,0000.0,0011.53,0005.27,0004.45
2023-01-09 23:01:00,,0821.8,5.01,0.00,23.9,22.6,00.0,32.7,25.6,12.5,0000.0,0011.69,0005.30,0004.48
2023-01-09 23:02:00,,0821.8,5.00,0.00,23.9,22.7,00.0,32.7,25.7,12.5,0000.0,0011.91,0005.36,0004.51
2023-01-09 23:03:00,,0821.8,5.00,0.00,23.9,22.7,00.0,32.7,25.7,12.6,0000.0,0012.33,0005.35,0004.55
2023-01-09 23:04:00,,0821.8,4.99,0.00,23.9,22.6,00.0,32.8,25.7,12.7,0000.0,0012.52,0005.38,0004.61
2023-01-09 23:05:00,,0821.8,5.02,0.00,23.9,22.5,00.0,32.8,25.6,12.7,0000.0,0012.45,0005.44,0004.68
2023-01-09 23:06:00,,0821.8,5.00,0.00,23.9,22.3,00.0,32.8,25.6,12.8,0000.0,0012.75,0005.52,0004.75
2023-01-09 23:07:00,,0821.8,5.00,0.00,23.8,22.2,00.0,32.8,25.5,12.8,0000.0,0013.03,0005.54,0004.81
2023-01-09 23:08:00,,0822.1,5.00,0.00,23.8,22.1,00.0,32.7,25.5,13.0,0000.0,0013.08,0005.62,0004.86
2023-01-09 23:09:00,,0822.0,5.00,0.00,23.8,22.1,00.0,32.7,25.4,13.1,0000.0,0013.06,0005.63,0004.90
2023-01-09 23:10:00,,0822.1,5.01,0.00,23.8,22.0,00.0,32.7,25.4,13.0,0000.0,0012.93,0005.62,0004.93
2023-01-09 23:11:00,,0822.0,5.02,0.00,23.7,21.9,00.0,32.7,25.4,12.8,0000.0,0013.09,0005.68,0004.96
2023-01-09 23:12:00,,0821.9,5.00,0.00,23.7,21.9,00.0,32.7,25.4,12.8,0000.0,0012.99,0005.69,0004.99
2023-01-09 23:13:00,,0821.9,5.00,0.00,23.7,22.0,00.0,32.7,25.4,12.5,0000.0,0013.37,0005.72,0005.01
2023-01-09 23:14:00,,0821.9,5.00,0.00,23.7,22.0,00.0,32.6,25.4,12.6,0000.0,0012.92,0005.76,0005.03
2023-01-09 23:15:00,,0822.1,5.01,0.00,23.7,22.0,00.0,32.6,25.4,12.6,0000.0,0012.11,0005.75,0005.04
2023-01-09 23:16:00,,0822.4,4.99,0.00,23.7,22.0,00.0,32.6,25.4,12.5,0000.0,0011.54,0005.75,0005.03
2023-01-09 23:17:00,,0822.2,5.00,0.00,23.6,21.9,00.0,32.6,25.3,12.7,0000.0,0010.98,0005.75,0005.02
2023-01-09 23:18:00,,0821.8,5.00,0.00,23.6,21.8,00.0,32.6,25.2,13.0,0000.0,0010.67,0005.75,0005.01
2023-01-09 23:19:00,,0821.8,5.00,0.00,23.6,21.7,00.0,32.6,25.2,13.0,0000.0,0010.73,0005.75,0005.02
2023-01-09 23:20:00,,0821.8,5.00,0.00,23.5,21.6,00.0,32.5,25.1,13.4,0000.0,0011.38,0005.82,0005.03
2023-01-09 23:21:00,,0821.8,5.00,0.00,23.4,21.5,00.0,32.5,25.0,13.4,0000.0,0011.46,0005.82,0005.03
2023-01-09 23:22:00,,0821.8,4.99,0.00,23.4,21.4,00.0,32.5,25.0,13.2,0000.0,0011.35,0005.76,0005.01
2023-01-09 23:23:00,,0821.7,5.00,0.00,23.4,21.3,00.0,32.5,25.0,13.2,0000.0,0011.26,0005.75,0005.01
2023-01-09 23:24:00,,0821.7,5.01,0.00,23.3,21.4,00.0,32.4,24.9,13.1,0000.0,0011.57,0005.71,0005.00
2023-01-09 23:25:00,,0821.7,5.01,0.00,23.3,21.5,00.0,32.4,25.0,13.0,0000.0,0011.63,0005.72,0004.99
2023-01-09 23:26:00,,0821.7,5.01,0.00,23.3,21.5,00.0,32.4,25.0,13.0,0000.0,0011.82,0005.74,0004.98
2023-01-09 23:27:00,,0821.8,4.99,0.00,23.3,21.5,00.0,32.4,24.9,13.2,0000.0,0012.25,0005.76,0004.99
2023-01-09 23:28:00,,0821.8,5.00,0.00,23.3,21.5,00.0,32.3,24.9,13.3,0000.0,0012.50,0005.76,0004.97
2023-01-09 23:29:00,,0821.8,5.01,0.00,23.3,21.5,00.0,32.3,24.9,13.4,0000.0,0012.67,0005.78,0004.96
2023-01-09 23:30:00,,0821.8,5.00,0.00,23.2,21.5,00.0,32.3,24.9,13.3,0000.0,0012.87,0005.79,0004.95
2023-01-09 23:31:00,,0821.8,5.00,0.00,23.2,21.6,00.0,32.3,24.9,13.3,0000.0,0012.31,0005.73,0004.93
2023-01-09 23:32:00,,0821.9,5.00,0.00,23.2,21.7,00.0,32.2,25.0,13.4,0000.0,0012.31,0005.72,0004.92
2023-01-09 23:33:00,,0822.0,5.00,0.00,23.3,21.8,00.0,32.2,25.0,13.4,0000.0,0013.65,0005.79,0004.92
2023-01-09 23:34:00,,0822.2,5.00,0.00,23.3,21.9,00.0,32.2,25.1,13.2,0000.0,0013.89,0005.84,0004.91
2023-01-09 23:35:00,,0822.1,4.99,0.00,23.3,22.0,00.0,32.2,25.1,13.0,0000.0,0013.68,0005.88,0004.90
2023-01-09 23:36:00,,0821.9,5.00,0.00,23.3,22.0,00.0,32.2,25.1,13.0,0000.0,0014.03,0005.89,0004.89
2023-01-09 23:37:00,,0821.8,4.99,0.00,23.3,22.0,00.0,32.2,25.1,12.9,0000.0,0014.27,0005.90,0004.88
2023-01-09 23:38:00,,0821.7,5.00,0.00,23.3,21.9,00.0,32.2,25.1,12.8,0000.0,0014.01,0005.86,0004.86
2023-01-09 23:39:00,,0821.6,5.01,0.00,23.3,21.9,00.0,32.2,25.0,12.8,0000.0,0013.72,0005.79,0004.82
2023-01-09 23:40:00,,0821.7,4.99,0.00,23.3,21.9,00.0,32.2,25.1,12.6,0000.0,0013.45,0005.73,0004.79
2023-01-09 23:41:00,,0821.6,5.00,0.00,23.3,22.0,00.0,32.2,25.1,12.5,0000.0,0013.15,0005.66,0004.74
2023-01-09 23:42:00,,0821.7,5.00,0.00,23.4,22.1,00.0,32.2,25.1,12.5,0000.0,0013.11,0005.61,0004.68
2023-01-09 23:43:00,,0821.8,5.00,0.00,23.4,22.1,00.0,32.2,25.2,12.4,0000.0,0013.75,0005.55,0004.64
2023-01-09 23:44:00,,0821.8,5.00,0.00,23.4,22.1,00.0,32.2,25.2,12.5,0000.0,0013.52,0005.46,0004.58
2023-01-09 23:45:00,,0821.8,5.01,0.00,23.4,22.2,00.0,32.2,25.2,12.5,0000.0,0012.92,0005.37,0004.54
2023-01-09 23:46:00,,0821.8,5.00,0.00,23.4,22.2,00.0,32.2,25.2,12.4,0000.0,0012.94,0005.26,0004.49
2023-01-09 23:47:00,,0821.8,5.00,0.00,23.4,22.3,00.0,32.2,25.2,12.4,0000.0,0012.70,0005.15,0004.45
2023-01-09 23:48:00,,0821.9,5.00,0.00,23.5,22.3,00.0,32.3,25.3,12.5,0000.0,0012.41,0005.07,0004.40
2023-01-09 23:49:00,,0821.8,4.99,0.00,23.5,22.2,00.0,32.3,25.3,12.5,0000.0,0012.44,0005.06,0004.40
2023-01-09 23:50:00,,0821.8,5.00,0.00,23.5,22.2,00.0,32.3,25.2,12.3,0000.0,0012.69,0005.10,0004.42
2023-01-09 23:51:00,,0821.7,5.00,0.00,23.5,22.2,00.0,32.3,25.2,12.1,0000.0,0012.67,0005.10,0004.43
2023-01-09 23:52:00,,0821.5,5.00,0.00,23.5,22.2,00.0,32.3,25.3,12.0,0000.0,0013.07,0005.09,0004.43
2023-01-09 23:53:00,,0821.5,4.99,0.00,23.5,22.2,00.0,32.3,25.3,11.9,0000.0,0013.19,0005.04,0004.42
2023-01-09 23:54:00,,0821.4,4.98,0.00,23.5,22.3,00.0,32.3,25.3,11.9,0000.0,0012.87,0005.02,0004.40
2023-01-09 23:55:00,,0821.6,5.02,0.00,23.5,22.3,00.0,32.3,25.3,11.9,0000.0,0012.49,0005.03,0004.38
2023-01-09 23:56:00,,0821.7,4.99,0.00,23.5,22.4,00.0,32.3,25.3,11.9,0000.0,0012.58,0005.01,0004.34
2023-01-09 23:57:00,,0821.8,5.00,0.00,23.5,22.4,00.0,32.3,25.4,11.8,0000.0,0012.54,0004.99,0004.30
2023-01-09 23:58:00,,0821.8,5.00,0.00,23.6,22.4,00.0,32.3,25.4,11.8,0000.0,0012.60,0004.95,0004.26
2023-01-09 23:59:00,,0821.7,4.99,0.00,23.6,22.4,00.0,32.3,25.3,11.7,0000.0,0012.66,0004.89,0004.23
